Location: Newark
(40.4667°N, 5.6000°W)
Time: 01:11:12
(UTC+00:00)

A-11 Canister half - Pass Details

Date: 28 November 2019
Orbit: 1526 x 1683 km, 47.3° (Epoch: 05 December)

Event Time Altitude Azimuth Distance (km) Brightness Sun altitude
Rises 17:38:23 0° 294° (WNW) 4,825 12.4 -7.9°
Reaches altitude 10° 17:42:17 10° 281° (WNW) 3,809 12.1 -8.6°
Maximum altitude 17:49:24 24° 233° (SW) 2,814 11.4 -9.9°
Drops below altitude 10° 17:56:23 10° 184° (S) 3,714 11.3 -11.1°
Sets 18:00:10 0° 171° (S) 4,678 11.7 -11.8°
